Regional Weather Roundup
Issued by NWS

Home | Current Version | Previous Version | Graphics & Text | Print | Product List | Glossary On
Versions: 1 2 3 4 5 6 7 8 9 10 11 12 13 14 15 16 17 18 19 20 21 22 23 24 25 26 27 28 29 30 31 32 33 34 35 36 37 38 39 40 41 42 43 44 45 46 47 48 49 50
000
ASUS43 KFSD 202302
RWRSD

WEATHER ROUNDUP FOR SOUTH DAKOTA
NATIONAL WEATHER SERVICE SIOUX FALLS SD
600 PM CDT SUN MAY 20 2018

NOTE: "FAIR" INDICATES FEW OR NO CLOUDS BELOW 12,000 FEET WITH NO
SIGNIFICANT WEATHER AND/OR OBSTRUCTIONS TO VISIBILITY.


SDZ001>005-009-010-012>017-210000-
NORTHWEST AND NORTH CENTRAL SOUTH DAKOTA

CITY           SKY/WX    TMP DP  RH WIND       PRES   REMARKS
BUFFALO          N/A     64  32  30 S22G28    30.04F
FAITH            N/A     62  39  42 SE12      30.13F
MOBRIDGE       MOSUNNY   70  38  31 E9        30.11F
$$

SDZ012>016-024>037-041>051-057-063-072>074-210000-
SOUTHWEST AND SOUTH CENTRAL SOUTH DAKOTA

CITY           SKY/WX    TMP DP  RH WIND       PRES   REMARKS
RAPID CTY ARPT CLOUDY    58  39  49 SE12      30.12F
PIERRE         PTSUNNY   65  36  34 SE8       30.11F
CUSTER         PTSUNNY   51  33  50 SE7       30.15F
ELLSWORTH AFB  CLOUDY    58  39  48 SE12      30.12F
PHILIP         MOSUNNY   65  37  35 E8        30.11F
PINE RIDGE     CLOUDY    61  36  39 NE6       30.12F
SPEARFISH      FAIR      61  39  44 E17G24    30.10F
WINNER         CLOUDY    62  38  40 E6        30.13F
$$

SDZ004>011-016>023-039-040-210000-
NORTHEAST SOUTH DAKOTA

CITY           SKY/WX    TMP DP  RH WIND       PRES   REMARKS
ABERDEEN       MOSUNNY   72  29  20 E13G18    30.13F
WATERTOWN      PTSUNNY   67  26  21 E12       30.11F
BROOKINGS      CLOUDY    64  43  46 SE10      30.11F
SISSETON         N/A     72  26  18 E13       30.12F
$$

SDZ017-020-022-023-036>040-048>070-210000-
SOUTHEAST SOUTH DAKOTA

CITY           SKY/WX    TMP DP  RH WIND       PRES   REMARKS
SIOUX FALLS    CLOUDY    59  48  67 E8        30.11F
HURON          CLOUDY    63  35  35 N5        30.11F
CHAMBERLAIN    CLOUDY    63  38  39 E9        30.13F
MITCHELL       CLOUDY    62  40  44 CALM      30.12F
YANKTON        CLOUDY    56  48  74 NE5       30.13S
$$

ABBREVIATIONS USED IN REMARKS
   TC - TEMPERATURE IN CELSIUS
  WCI - WIND CHILL INDEX
   HX - HEAT INDEX
  VSB - VISIBILITY




USA.gov is the U.S. government's official web portal to all federal, state and local government web resources and services.